EDT,Max TemperatureF,Mean TemperatureF,Min TemperatureF,Max Dew PointF,MeanDew PointF,Min DewpointF,Max Humidity, Mean Humidity, Min Humidity, Max Sea Level PressureIn, Mean Sea Level PressureIn, Min Sea Level PressureIn, Max VisibilityMiles, Mean VisibilityMiles, Min VisibilityMiles, Max Wind SpeedMPH, Mean Wind SpeedMPH, Max Gust SpeedMPH,PrecipitationIn, CloudCover, Events, WindDirDegrees
2012-9-1,90,80,69,70,68,66,97,74,50,30.15,30.10,30.05,10,10,10,8,2,13,T,2,Rain,288
2012-9-2,88,79,69,73,69,67,97,75,53,30.07,30.03,29.97,10,10,10,14,2,22,0.06,3,Rain,150
2012-9-3,79,73,67,73,69,66,100,93,85,30.09,30.04,29.99,10,6,0,9,2,,0.51,6,Fog-Rain,107
2012-9-4,85,77,69,74,70,68,100,83,65,30.05,30.00,29.91,10,7,1,20,6,24,0.19,7,Rain,189
2012-9-5,84,77,70,74,71,69,100,85,69,29.94,29.90,29.83,10,8,2,13,6,16,0.14,6,Rain,205
2012-9-6,81,73,65,72,68,63,100,79,58,29.99,29.91,29.85,10,6,0,13,3,16,0.03,4,Fog-Rain,143
2012-9-7,87,75,62,68,64,62,100,76,51,30.01,29.95,29.87,10,6,0,12,3,,0.00,1,Fog,143
2012-9-8,86,75,63,70,63,54,100,81,61,29.88,29.79,29.69,10,8,1,18,5,32,0.21,3,Rain,223
2012-9-9,78,65,52,52,50,46,89,61,33,30.02,29.93,29.86,10,10,10,12,3,18,0.00,2,,335
2012-9-10,77,64,51,52,48,44,89,61,33,30.21,30.11,30.02,10,10,10,10,1,16,0.00,0,,358
2012-9-11,77,62,47,53,48,44,93,63,33,30.34,30.29,30.22,10,10,10,9,2,16,0.00,0,,75
2012-9-12,80,65,49,55,52,48,97,68,28,30.38,30.34,30.30,10,10,7,7,2,,0.00,0,,128
2012-9-13,80,65,50,56,51,45,100,69,21,30.40,30.34,30.29,10,9,2,8,2,13,0.00,0,,91
2012-9-14,80,67,53,59,51,32,90,65,23,30.31,30.24,30.17,10,10,10,10,2,15,0.00,2,,255
2012-9-15,76,65,54,58,54,32,87,63,28,30.25,30.18,30.14,10,10,10,17,3,21,0.00,2,,69
2012-9-16,64,60,56,58,56,54,97,81,64,30.20,30.16,30.12,10,10,8,8,2,22,T,7,Rain,189
2012-9-17,68,64,60,66,62,58,100,88,76,30.14,30.06,29.94,10,7,2,13,2,16,0.11,8,Rain,88
2012-9-18,75,70,64,71,67,59,100,89,78,29.90,29.76,29.69,10,8,0,24,10,35,1.09,8,Fog-Rain,192
2012-9-19,73,64,55,54,50,44,93,67,41,30.17,30.06,29.88,10,10,10,9,3,13,T,5,,16
2012-9-20,74,62,50,58,53,48,100,77,53,30.20,30.14,30.07,10,10,10,10,2,,0.00,2,,190
2012-9-21,81,66,51,60,54,52,100,71,42,30.10,30.07,29.98,10,4,0,13,3,,0.00,1,Fog,196
2012-9-22,84,71,58,63,57,46,100,66,32,29.98,29.93,29.85,10,9,5,18,6,28,0.00,2,,222
2012-9-23,72,58,43,45,38,27,92,56,20,30.18,30.11,29.99,10,10,10,9,2,14,0.00,0,,331
2012-9-24,69,55,41,42,39,33,89,59,29,30.27,30.21,30.17,10,10,10,10,2,16,0.00,0,,301
2012-9-25,75,58,40,55,47,38,100,68,35,30.24,30.20,30.11,10,10,10,16,3,22,0.01,1,Rain,207
2012-9-26,84,68,52,62,57,52,100,72,43,30.20,30.17,30.13,10,8,1,13,4,20,0.00,0,,202
2012-9-27,85,70,55,62,58,55,100,70,40,30.19,30.14,30.08,10,8,1,8,1,,0.00,0,,191
2012-9-28,78,68,57,63,60,57,100,77,54,30.09,30.05,30.00,10,9,4,9,3,16,T,3,,239
2012-9-29,66,61,55,63,57,54,93,81,68,30.04,29.99,29.92,10,10,7,12,3,15,T,7,Rain,54
2012-9-30,74,61,47,54,48,41,100,67,33,29.97,29.91,29.84,10,10,8,10,2,14,T,2,Rain,251